Regional Weather Roundup
Issued by NWS Midland/Odessa, TX

Skip options and go directly to product.
Home | Oldest Version | Previous Version | Current Version | All | Graphics & Text | Save Text | Print | Product List | Glossary On

Skip product version selection by date and time.   
375
ASUS44 KMAF 291801
RWRMAF
MIDLAND AREA WEATHER ROUNDUP
NATIONAL WEATHER SERVICE MIDLAND TX
100 PM CDT WED JUL 29 2015

...IN SOUTHWEST TEXAS AND SOUTHEAST NEW MEXICO...

CITY           SKY/WX    TMP DP  RH WIND       PRES   REMARKS
ALPINE         FAIR      84  62  48 E10       30.28S
ANDREWS        FAIR      91  61  36 NE9       30.16F
ARTESIA        SUNNY     86  63  45 N10       30.21S
BIG SPRING     FAIR      90  60  35 S5        30.14F
CARLSBAD       SUNNY     90  61  37 N12G20    30.16F
DRYDEN           N/A     93  69  45 E8        30.08S
FORT STOCKTON  FAIR      90  63  40 VRB5      30.13S
GUAD PASS      SUNNY     78  62  57 NE22G30   30.30S
HOBBS          SUNNY     88  61  40 NE9       30.20S
MARFA          FAIR      81  63  54 NE10      30.25S
MIDLAND AIRPK  FAIR      91  58  32 E3        30.14S
MIDLAND INTL   FAIR      94  61  33 NE5       30.13F
ODESSA         FAIR      93  57  29 VRB7      30.14F
PECOS          FAIR      92  60  35 NE9       30.10F
PRESIDIO       FAIR      95  59  30 E8        30.07F
SEMINOLE       FAIR      89  60  37 N5        30.19S
SNYDER         FAIR      88  67  48 CALM      30.13F
WINK           FAIR      95  61  32 E8        30.10S
$$
...OTHER STATIONS IN TEXAS...

CITY           SKY/WX    TMP DP  RH WIND       PRES   REMARKS
ABILENE        FAIR      94  69  44 VRB3      30.09F
AMARILLO       FAIR      80  66  62 N9        30.24F
AUSTIN         FAIR      92  70  48 S8        30.04F
BROWNSVILLE    PTSUNNY   92  74  55 S14G23    30.03S HX 101
CORPUS CHRISTI FAIR      94  76  55 S12G22    30.03S HX 106
DALLAS FTW     FAIR      95  69  42 CALM      30.04F HX 100
DEL RIO        FAIR      93  70  46 SE12      30.02F
EL PASO        MOSUNNY   85  61  44 VRB6      30.17F
HOUSTON INT    FAIR      94  70  45 CALM      30.05F HX 100
LUBBOCK        FAIR      86  64  47 CALM      30.18F
SAN ANGELO     FAIR      96  65  35 VRB3      30.08F
SAN ANTONIO    FAIR      91  72  53 S14       30.06F
WACO           FAIR      95  68  41 VRB7      30.05S
WICHITA FALLS  NOT AVBL
$$
...OTHER LOCATIONS IN NEW MEXICO...

CITY           SKY/WX    TMP DP  RH WIND       PRES   REMARKS
ALAMAGORDO     SUNNY     82  57  42 N5        30.21S
ALBUQUERQUE    PTSUNNY   78  55  44 N9        30.32R
CANNON AFB     SUNNY     80  64  57 SE10      30.27S
CLOVIS         SUNNY     82  64  54 E10       30.28S
HOLLOMAN AFB   NOT AVBL
ROSWELL        SUNNY     87  58  37 CALM      30.21S
RUIDOSO          N/A    N/A N/A N/A MISG        N/A
SANTA FE       CLOUDY    74  52  46 VRB5      30.38R
TRUTH OR CONSE CLOUDY    76  60  57 VRB3      30.25R
TUCUMCARI      PTSUNNY   79  65  62 NE13      30.26F
$$

USA.gov is the U.S. government's official web portal to all federal, state and local government web resources and services.